Dewpoint
-3 -1 1 1 2 2 3 4 4 4 4 5 4 4 3 2 2 3 4 4 5 6 6 6 3 3 1 -0 0 4 3 6 5 4 3 2 2 3 3 4 3 4 7 5
-3 -1 0 1 1 2 2 5 4 4 4 4 4 4 3 3 3 4 4 5 4 4 5 6 3 1 0 1 2 5 4 6 6 7 5 5 4 4 2 1 5 4 7 5
-1 -0 0 0 1 2 1 4 5 5 5 3 4 4 4 4 3 3 4 4 4 5 5 3 5 3 -0 1 2 4 4 6 6 8 8 7 8 5 4 3 6 3 7 7
-1 -1 0 0 1 2 2 4 5 4 4 5 4 3 4 5 5 3 4 4 4 5 6 5 5 3 3 3 3 5 5 7 5 5 5 6 6 7 7 6 4 5 3 6
-1 -1 0 0 1 2 3 5 5 3 3 4 4 4 5 5 5 4 4 5 4 5 6 4 1 2 2 4 3 5 5 6 6 7 8 7 8 7 7 7 6 5 7 6
-1 -1 -0 0 1 2 3 4 4 3 4 4 5 5 4 5 4 4 4 4 5 5 5 3 3 2 2 3 5 4 6 7 7 10 7 8 9 7 9 7 8 9 9 4
-1 -1 -0 0 1 2 3 4 4 4 5 4 5 4 4 5 4 5 4 4 5 4 4 4 3 3 3 3 5 3 4 5 8 9 5 7 3 -0 5 6 5 4 4 1
-2 -1 -0 0 1 3 4 4 3 4 5 4 4 5 5 4 4 5 5 4 4 4 4 5 6 5 5 4 3 6 5 5 9 8 7 4 1 -0 3 6 6 4 4 2
-2 -1 -1 -0 1 3 5 4 3 3 5 5 4 4 4 5 4 4 5 5 5 4 5 6 6 7 8 7 6 5 4 5 8 5 6 7 2 -1 -2 -1 4 1 1 2
-2 -2 -2 -0 1 2 4 5 3 4 4 4 4 4 5 3 5 5 5 5 6 5 7 7 6 8 6 8 7 8 7 7 8 7 7 5 2 -1 -1 3 1 1 1 1
-2 -2 -2 -1 1 2 4 5 5 4 4 4 4 4 3 5 4 5 4 6 6 6 7 7 6 5 7 6 5 6 7 7 8 8 7 6 -0 -2 -1 -1 2 2 2 2
-3 -2 -2 -1 1 2 4 5 5 5 5 5 5 4 4 4 4 4 5 5 6 6 6 6 6 7 6 7 7 4 7 6 7 6 5 2 1 1 2 1 2 2 2 2
-3 -1 -1 -2 1 3 4 5 5 4 5 5 5 3 3 4 5 4 5 5 5 6 6 5 5 5 4 7 6 5 4 3 6 5 3 2 1 1 2 1 1 1 2 2
-4 -2 -2 -1 1 3 4 5 4 4 4 5 4 4 5 5 4 2 4 6 6 6 6 6 6 6 3 5 3 5 4 3 3 4 1 1 0 0 2 1 2 1 2 1
-2 -2 -2 -2 1 3 4 4 4 4 5 5 5 5 5 4 4 4 4 5 6 6 6 6 6 5 5 3 2 3 0 3 5 5 1 0 0 0 2 1 1 1 1 1
-2 -3 -3 -2 1 4 4 4 4 4 4 4 6 5 4 4 4 4 4 4 6 6 6 6 6 5 5 6 6 2 1 0 2 1 0 0 0 2 1 1 1 1 0 -1
-2 -3 -3 -2 2 2 4 4 4 3 4 5 4 5 4 4 4 4 3 4 5 6 6 6 5 5 4 5 6 3 1 -0 0 0 0 1 1 1 1 1 0 -1 -2 -2
-2 -3 -1 -0 2 3 4 5 5 3 4 5 3 4 4 5 5 5 5 5 5 5 5 4 5 3 3 5 3 2 1 1 1 1 0 1 1 1 1 0 -1 -2 -2 -3
-3 -2 -1 2 3 4 4 4 5 3 5 4 3 4 5 4 5 5 5 5 5 5 4 5 4 5 5 3 3 1 1 1 1 1 1 1 1 1 0 -0 -1 -2 -1 -2
-1 0 1 2 4 4 4 4 5 5 5 4 4 4 5 4 4 3 4 4 4 5 4 3 5 5 3 4 4 3 1 1 1 1 1 1 1 0 0 -1 -2 -4 -4 -6
1 1 2 3 4 4 4 4 3 3 3 4 4 4 4 3 4 4 3 3 2 5 4 4 4 4 2 1 3 3 1 1 1 0 0 0 0 0 -0 -2 -4 -6 -7 -8
-1 -1 0 3 4 3 3 3 2 3 3 3 4 4 3 3 3 3 3 3 2 5 1 4 4 1 -1 0 2 2 1 1 1 1 1 1 0 -0 -1 -4 -6 -8 -9 -11
-0 0 1 2 2 4 4 4 3 3 2 3 3 2 2 3 2 1 1 4 4 -1 2 2 1 -1 -1 0 1 2 1 1 1 1 1 1 0 -1 -4 -6 -8 -10 -10 -9
-0 -0 2 2 3 2 2 1 1 1 2 3 2 1 1 1 1 1 -2 0 -1 -1 1 0 -2 -2 -0 1 1 2 1 1 1 1 1 -0 -2 -4 -6 -8 -10 -10 -9 -8
-0 -1 2 2 -1 -1 -1 -0 1 1 2 2 0 -0 -0 1 1 -1 -0 0 -0 -0 -0 -2 -2 -1 1 1 1 1 1 1 1 0 -0 -2 -5 -7 -8 -9 -9 -9 -9 -7
-1 -1 -0 -1 -1 -1 -1 0 1 1 2 1 -1 -1 -0 1 0 -2 -2 -2 -2 -2 -2 -2 -1 -0 0 0 -0 -0 -0 -0 -1 -1 -3 -5 -7 -9 -8 -7 -8 -8 -9 -8
-1 -2 -2 -2 -1 -2 -1 0 1 2 0 1 -3 -2 -3 -4 -4 -3 -5 -3 -3 -3 -1 -2 -0 -0 -1 -1 -1 -1 -1 -1 -2 -4 -7 -8 -8 -8 -8 -8 -7 -8 -8 -8
Wind_Speed
37 38 31 24 12 14 12 15 4 40 49 7 5 4 7 6 8 8 2 4 8 5 9 5 8 11 8 14 7 11 13 4 7 17 8 17 23 20 18 7 8 6 4 7
35 39 30 17 7 9 4 6 5 44 45 5 6 5 5 5 6 8 7 8 9 11 7 6 9 11 8 13 12 9 9 4 4 4 5 9 15 17 22 14 3 16 6 7
31 39 31 25 10 7 11 7 5 11 21 10 7 8 7 7 11 8 9 5 11 10 7 12 4 6 6 20 14 21 15 5 7 8 1 7 10 22 22 18 6 10 11 17
30 37 38 26 17 13 12 8 3 8 10 7 9 12 8 13 7 8 11 4 14 8 7 6 10 15 14 4 13 13 9 5 8 14 22 16 18 22 24 26 12 12 23 25
30 34 36 28 19 17 27 4 6 7 9 20 11 13 10 10 8 9 5 8 11 16 12 8 5 6 6 5 11 11 7 4 5 7 8 16 14 17 19 16 13 22 15 2
30 32 33 27 15 10 9 6 15 14 9 8 8 6 9 11 8 14 13 15 13 14 21 22 27 14 16 8 6 10 5 3 4 6 1 14 8 18 14 18 20 8 2 2
27 29 31 30 18 9 11 12 15 6 5 8 9 9 13 15 15 11 9 16 13 5 14 13 18 21 13 6 8 8 5 3 4 3 5 3 4 3 6 6 7 6 6 3
26 29 29 29 15 6 7 17 11 6 2 3 8 9 4 8 17 16 11 19 19 18 13 3 1 2 5 2 2 6 8 2 3 2 2 4 4 5 3 4 3 6 7 6
23 27 27 31 13 18 5 19 12 7 4 6 5 4 4 3 2 7 9 10 14 14 3 3 4 3 4 3 2 2 4 3 2 3 2 1 2 2 1 1 2 0 3 8
25 26 27 29 15 19 13 14 10 8 5 5 7 3 2 3 1 3 1 3 6 14 5 2 3 3 2 3 5 4 3 1 2 2 2 6 4 2 3 2 4 3 2 12
23 23 25 28 12 14 4 21 16 8 3 6 9 9 7 5 4 2 2 2 2 2 4 3 4 3 4 2 3 4 4 5 2 2 1 5 4 3 2 3 2 3 0 10
22 23 24 26 13 9 8 11 20 13 8 4 11 20 21 15 7 7 5 3 2 5 3 2 3 2 2 2 3 1 4 5 4 7 5 1 3 1 3 1 2 3 13 19
21 22 23 25 12 3 6 15 13 10 2 6 13 15 16 16 17 13 5 4 5 3 3 3 2 2 4 4 5 4 4 3 2 1 2 2 3 2 2 3 7 12 21 28
20 22 23 25 9 1 11 16 15 12 4 2 5 10 7 9 9 12 16 6 4 2 2 1 2 2 2 2 1 2 4 5 4 4 3 0 4 5 6 10 16 20 21 24
21 21 22 25 9 1 12 14 13 16 5 2 3 2 5 5 7 8 9 8 5 3 2 2 3 2 2 1 1 3 4 5 4 5 7 4 3 14 17 20 22 22 25 28
22 23 23 24 8 8 12 5 15 16 14 1 2 0 0 2 5 6 8 6 3 3 2 2 1 3 2 1 3 5 19 15 18 1 2 5 11 20 20 21 22 24 27 28
25 26 24 17 10 6 4 4 5 20 14 3 1 1 2 5 5 3 5 3 1 2 3 0 2 2 4 2 3 3 3 11 9 9 16 13 19 14 21 24 25 27 27 26
28 26 22 10 10 13 9 5 5 19 13 3 1 1 0 5 3 2 4 5 3 2 1 1 1 2 2 3 5 2 9 16 18 16 4 15 21 26 27 28 30 30 29 27
28 21 6 9 9 8 17 5 10 20 6 3 2 3 2 4 1 2 2 2 1 1 1 1 1 2 4 5 4 10 17 8 15 13 18 24 31 31 31 32 30 32 30 27
12 7 5 4 8 13 23 6 7 10 8 5 2 4 1 1 1 2 0 3 1 1 1 4 1 3 8 6 4 3 18 12 21 25 19 27 31 33 34 32 30 29 29 27
3 4 3 7 27 9 7 4 4 4 2 6 6 6 3 3 2 2 2 1 1 0 1 1 2 4 3 2 7 6 17 16 19 12 15 23 32 37 35 31 28 28 27 25
7 4 3 12 5 4 4 3 1 3 5 5 3 6 6 5 3 2 1 2 1 2 1 1 3 3 3 2 4 8 15 19 16 9 16 23 30 32 31 30 29 27 25 23
6 3 4 4 3 4 7 9 3 3 4 11 8 3 7 5 3 3 2 2 2 1 0 4 4 2 3 4 5 9 16 17 15 17 23 27 30 30 30 31 27 26 24 22
3 3 4 4 4 5 3 4 5 6 10 19 18 5 3 4 3 2 4 1 2 1 2 6 2 9 7 7 10 16 18 17 19 25 28 32 35 34 31 29 27 26 24 22
3 3 3 3 1 1 3 2 4 3 23 28 9 6 3 2 4 2 4 2 3 5 5 3 5 13 12 13 15 18 20 21 25 29 34 34 33 32 31 28 25 23 23 21
2 2 2 1 0 1 1 3 3 14 22 20 5 3 3 2 4 3 6 7 6 4 3 4 16 16 15 17 19 20 22 26 32 35 36 36 35 34 32 27 23 21 19 18
2 1 2 3 3 4 3 4 8 20 20 2 3 4 6 3 3 2 4 5 3 3 5 17 17 19 20 21 22 24 27 32 35 36 35 35 34 32 30 28 24 21 19 17
Wind_Direction
329 329 345 332 286 256 268 241 158 167 174 162 175 167 175 164 164 200 166 200 207 220 189 216 203 226 219 187 158 193 208 247 234 226 225 217 206 206 201 203 210 221 0 276
332 331 336 339 298 258 285 257 182 172 166 150 172 155 184 166 166 179 190 220 207 204 226 227 200 229 232 211 165 183 173 221 270 227 213 187 195 192 200 211 108 236 254 267
335 337 339 347 311 231 312 255 158 152 186 163 152 172 191 198 213 215 190 230 218 210 226 225 260 236 259 202 191 168 174 221 223 266 35 142 162 203 195 195 195 195 235 293
338 338 344 349 340 314 237 242 137 158 185 180 163 178 188 196 186 206 199 227 219 212 232 229 218 245 267 204 173 178 189 254 222 249 252 249 178 186 189 198 194 196 245 242
338 340 347 347 340 336 194 218 134 152 151 151 165 178 195 198 190 181 198 226 222 220 226 206 207 195 217 202 174 190 217 278 256 259 181 200 186 194 203 193 195 213 245 36
337 342 346 344 353 17 219 153 135 144 152 154 174 194 197 199 203 202 202 214 233 229 234 247 258 276 281 280 152 208 219 236 305 327 56 172 187 212 184 174 197 193 345 202
336 341 343 344 323 356 259 164 147 114 166 170 194 181 204 226 235 224 191 233 227 253 261 281 254 261 267 244 173 182 257 252 253 302 317 38 307 83 169 145 168 148 146 122
332 340 346 340 334 359 297 164 163 119 137 171 170 185 190 266 247 220 253 244 235 266 266 225 16 307 356 337 302 195 227 240 310 356 316 292 9 3 53 150 238 186 211 130
329 335 345 343 345 17 179 171 173 154 131 197 196 166 219 217 240 269 240 236 217 184 233 166 181 202 229 196 240 256 176 227 127 354 52 60 217 343 333 237 301 34 166 155
331 334 344 345 335 4 192 210 196 179 150 164 144 143 210 182 224 281 277 194 168 185 201 141 170 209 313 181 193 176 166 175 189 322 304 288 256 313 314 100 238 319 267 178
331 335 342 341 313 6 103 199 202 213 128 169 206 208 191 201 169 244 254 213 201 150 186 152 190 174 203 148 198 194 159 149 161 157 268 301 351 2 122 221 28 4 175 158
329 339 339 333 309 1 169 207 214 226 220 256 224 239 260 252 261 249 234 290 228 189 180 205 121 133 138 167 239 311 215 184 177 186 214 260 324 347 87 66 104 76 128 141
326 332 334 331 307 25 161 221 209 209 203 263 255 261 267 263 268 246 230 224 247 212 212 168 125 185 133 175 229 168 247 175 223 113 23 193 204 134 100 113 128 128 134 142
324 329 333 330 289 66 161 206 209 204 182 246 264 255 246 247 243 231 228 266 254 284 168 92 97 237 190 216 284 181 197 140 175 267 271 105 232 197 162 136 138 136 136 142
325 327 328 325 264 115 168 204 213 201 209 331 302 267 251 247 236 230 229 243 266 230 189 173 186 126 101 303 79 245 188 180 169 221 205 166 229 173 161 149 147 146 142 140
329 324 321 319 258 153 151 192 217 212 218 314 275 245 208 218 218 222 213 221 260 254 205 83 119 146 128 250 242 242 205 205 213 237 210 195 148 155 160 151 149 148 145 143
323 321 315 306 226 198 181 206 197 195 198 246 309 271 160 130 130 157 191 218 357 340 341 104 133 164 152 238 245 304 225 192 183 180 135 110 146 154 158 152 149 147 140 141
321 315 310 243 210 192 172 146 182 181 174 229 157 280 313 190 175 151 165 173 197 209 205 147 163 132 192 250 250 272 147 146 148 157 188 168 155 152 152 151 149 142 140 142
315 307 264 194 194 175 190 150 156 169 189 185 149 159 208 177 126 125 142 179 119 325 162 105 294 199 224 226 212 183 173 159 150 137 137 146 152 152 152 153 152 145 144 146
307 150 157 195 174 160 187 136 178 188 200 214 203 143 130 168 98 35 22 12 75 89 318 315 270 262 250 219 218 211 191 178 157 134 131 150 152 157 158 158 157 153 149 149
107 168 195 160 139 133 170 170 207 172 171 194 178 163 137 176 121 126 30 152 14 144 290 264 254 265 240 222 219 224 197 194 181 194 181 174 170 164 160 158 157 153 151 151
297 274 278 178 135 154 156 186 160 198 201 184 163 156 141 136 136 111 306 112 77 219 56 279 258 252 167 171 182 190 187 187 188 190 177 169 166 164 159 155 154 152 150 149
237 235 220 208 179 164 191 185 201 174 178 179 161 140 134 123 116 72 93 151 192 56 134 237 230 230 185 176 173 165 170 175 175 162 164 162 159 159 158 152 153 151 149 147
226 220 215 209 196 219 180 175 167 197 163 151 148 111 122 127 104 141 103 145 83 58 253 237 236 195 167 155 153 158 155 163 162 158 157 156 156 155 155 154 153 152 147 145
221 205 241 221 108 287 315 253 147 141 163 151 118 85 107 113 116 83 93 64 248 220 233 233 177 162 160 160 159 160 158 160 157 156 155 152 152 151 149 147 149 150 145 145
281 273 293 344 274 280 251 150 135 157 158 153 122 117 105 145 128 107 208 145 224 245 217 169 152 155 158 158 160 160 159 157 154 155 152 149 149 148 144 143 144 144 145 145
324 295 317 316 299 264 219 190 183 169 167 163 125 119 193 90 82 246 200 209 225 216 168 157 161 158 155 158 157 155 155 153 151 149 149 150 149 147 145 144 145 146 144 144
Height
1401 1392 1386 1381 1379 1382 1383 1383 1383 1384 1392 1404 1409 1410 1413 1414 1418 1421 1424 1425 1424 1423 1424 1425 1431 1422 1416 1409 1414 1426 1424 1422 1417 1409 1404 1408 1413 1415 1422 1425 1425 1419 1420 1394
1398 1392 1384 1379 1378 1380 1383 1377 1380 1383 1388 1394 1401 1406 1409 1412 1416 1417 1421 1420 1420 1420 1420 1420 1418 1409 1405 1408 1411 1416 1419 1416 1410 1391 1405 1400 1409 1404 1409 1410 1414 1413 1421 1395
1396 1389 1381 1376 1374 1375 1378 1375 1373 1382 1386 1391 1396 1402 1406 1409 1411 1413 1415 1415 1416 1416 1414 1413 1412 1408 1399 1399 1403 1406 1412 1409 1402 1387 1380 1386 1394 1404 1400 1403 1410 1413 1412 1399
1394 1388 1378 1372 1368 1368 1374 1370 1366 1369 1376 1385 1390 1397 1399 1402 1406 1410 1411 1412 1409 1410 1409 1405 1407 1403 1399 1397 1400 1405 1408 1398 1399 1391 1384 1384 1377 1386 1388 1389 1397 1407 1391 1403
1390 1386 1378 1371 1367 1365 1367 1363 1363 1371 1375 1382 1388 1393 1394 1396 1400 1404 1405 1405 1401 1404 1400 1398 1394 1395 1392 1390 1398 1400 1401 1394 1391 1373 1358 1374 1375 1377 1378 1387 1398 1410 1380 1367
1387 1380 1376 1371 1367 1364 1363 1361 1362 1368 1375 1379 1386 1386 1388 1390 1393 1395 1395 1398 1398 1393 1391 1395 1390 1393 1391 1386 1386 1393 1393 1392 1385 1369 1359 1367 1372 1376 1364 1383 1381 1376 1369 1363
1384 1380 1374 1367 1362 1362 1361 1359 1362 1367 1374 1377 1379 1383 1387 1388 1388 1387 1388 1392 1391 1390 1388 1386 1388 1387 1383 1381 1379 1382 1385 1385 1377 1375 1365 1368 1352 1349 1350 1356 1359 1360 1364 1362
1380 1377 1372 1367 1363 1359 1358 1358 1361 1367 1372 1372 1375 1380 1381 1383 1379 1381 1382 1383 1383 1387 1390 1389 1387 1388 1384 1380 1379 1377 1380 1384 1380 1382 1380 1365 1355 1354 1355 1357 1360 1361 1361 1365
1381 1377 1371 1364 1358 1355 1356 1359 1363 1367 1369 1373 1373 1377 1378 1378 1378 1380 1375 1375 1376 1381 1384 1384 1391 1389 1384 1381 1379 1376 1378 1378 1380 1393 1387 1373 1360 1357 1355 1355 1368 1358 1359 1363
1376 1371 1366 1361 1357 1355 1356 1359 1363 1367 1370 1371 1372 1374 1375 1377 1377 1377 1373 1372 1374 1378 1379 1379 1385 1382 1380 1380 1377 1381 1377 1380 1383 1389 1385 1374 1358 1357 1355 1364 1370 1357 1358 1360
1374 1370 1365 1361 1358 1355 1356 1360 1362 1366 1367 1369 1370 1372 1374 1374 1374 1375 1374 1372 1372 1374 1375 1374 1380 1380 1375 1380 1379 1372 1377 1381 1382 1383 1386 1382 1356 1356 1358 1361 1360 1359 1356 1358
1370 1367 1364 1361 1357 1355 1356 1358 1361 1364 1368 1369 1368 1369 1370 1370 1371 1372 1371 1368 1366 1367 1369 1371 1369 1373 1374 1371 1381 1375 1376 1372 1374 1376 1371 1362 1360 1360 1360 1360 1359 1360 1359 1361
1368 1367 1363 1359 1355 1353 1355 1357 1360 1364 1366 1367 1366 1365 1366 1366 1365 1367 1368 1366 1365 1363 1363 1364 1368 1369 1373 1375 1372 1372 1369 1366 1370 1368 1360 1361 1362 1361 1361 1361 1362 1363 1364 1366
1366 1363 1359 1355 1352 1352 1353 1356 1360 1364 1366 1365 1361 1360 1361 1361 1362 1363 1363 1362 1362 1361 1362 1362 1366 1368 1366 1367 1365 1365 1364 1363 1366 1366 1360 1362 1361 1362 1363 1364 1365 1367 1370 1373
1362 1360 1357 1353 1352 1351 1353 1356 1359 1361 1365 1362 1360 1360 1360 1360 1361 1362 1362 1362 1361 1361 1362 1361 1364 1364 1366 1366 1366 1364 1358 1358 1362 1360 1353 1355 1356 1360 1364 1366 1368 1371 1372 1378
1359 1356 1353 1351 1349 1351 1353 1356 1358 1359 1362 1363 1360 1360 1360 1360 1360 1361 1361 1362 1361 1361 1359 1360 1363 1364 1365 1368 1362 1349 1347 1349 1351 1353 1352 1356 1357 1361 1365 1367 1371 1374 1377 1382
1355 1351 1348 1346 1347 1349 1352 1354 1353 1355 1361 1362 1361 1359 1360 1360 1361 1361 1362 1362 1362 1362 1360 1361 1362 1363 1363 1366 1361 1347 1346 1348 1350 1352 1353 1359 1360 1362 1367 1370 1375 1379 1382 1387
1348 1345 1343 1342 1345 1348 1350 1351 1351 1354 1360 1361 1361 1360 1360 1360 1360 1361 1361 1362 1363 1363 1362 1363 1362 1363 1364 1361 1349 1347 1348 1348 1351 1352 1352 1354 1359 1364 1369 1373 1377 1381 1386 1390
1342 1339 1338 1342 1344 1344 1348 1351 1352 1354 1360 1357 1359 1359 1360 1359 1359 1360 1361 1361 1362 1363 1363 1363 1364 1360 1359 1346 1345 1346 1347 1348 1350 1353 1354 1357 1360 1365 1370 1374 1380 1382 1388 1393
1336 1337 1339 1339 1339 1343 1349 1353 1354 1355 1355 1356 1355 1356 1358 1360 1359 1361 1362 1362 1364 1366 1365 1364 1362 1355 1343 1342 1344 1345 1347 1349 1350 1352 1360 1361 1364 1367 1372 1377 1382 1385 1389 1394
1336 1336 1336 1337 1341 1345 1349 1350 1351 1351 1352 1350 1351 1353 1356 1360 1360 1362 1364 1366 1367 1365 1367 1365 1360 1352 1342 1341 1342 1344 1346 1349 1351 1353 1355 1358 1359 1365 1372 1379 1384 1389 1393 1397
1337 1335 1335 1337 1338 1342 1345 1346 1347 1346 1345 1346 1346 1349 1352 1357 1359 1361 1365 1366 1368 1365 1368 1366 1357 1343 1340 1341 1341 1342 1345 1348 1351 1354 1356 1360 1365 1370 1376 1382 1387 1391 1396 1400
1335 1335 1334 1332 1335 1335 1336 1334 1339 1339 1339 1339 1342 1349 1350 1356 1358 1363 1365 1364 1366 1369 1369 1360 1345 1339 1339 1340 1341 1342 1345 1349 1352 1354 1357 1362 1368 1375 1379 1384 1390 1394 1398 1402
1334 1332 1329 1328 1327 1323 1323 1324 1327 1325 1328 1333 1339 1344 1347 1352 1358 1362 1372 1370 1371 1379 1373 1350 1340 1337 1338 1339 1341 1343 1346 1349 1352 1355 1360 1364 1369 1375 1382 1387 1392 1396 1400 1404
1331 1330 1324 1324 1326 1325 1324 1324 1324 1325 1327 1331 1338 1344 1346 1352 1357 1360 1366 1371 1373 1362 1346 1339 1334 1336 1338 1340 1343 1345 1347 1350 1354 1358 1362 1367 1374 1379 1386 1391 1396 1400 1403 1406
1328 1327 1327 1326 1325 1325 1325 1325 1325 1325 1329 1332 1334 1342 1347 1350 1352 1364 1363 1367 1359 1338 1336 1332 1334 1336 1339 1341 1344 1347 1350 1353 1356 1361 1366 1371 1377 1383 1388 1394 1399 1403 1406 1409
1328 1328 1327 1326 1325 1325 1324 1323 1324 1326 1329 1331 1336 1340 1345 1353 1363 1363 1357 1349 1335 1331 1331 1333 1335 1338 1341 1344 1346 1350 1353 1357 1362 1366 1372 1377 1382 1387 1391 1395 1400 1404 1407 1410